Regional Weather Roundup
Issued by NWS

Home | Current Version | Previous Version | Text Only | Print | Product List | Glossary Off
Versions: 1 2 3 4 5 6 7 8 9 10 11 12 13 14 15 16 17 18 19 20 21 22 23 24 25 26 27 28 29 30 31 32 33 34 35 36 37 38 39 40 41 42 43 44 45 46 47 48 49 50

000
ASUS46 KSTO 270904
RWRCA

NORTHERN AND CENTRAL CA REGIONAL WEATHER ROUNDUP
NATIONAL WEATHER SERVICE SACRAMENTO CA
200 AM PDT TUE JUN 27 2017

NOTE: FAIR INDICATES FEW OR NO CLOUDS BELOW 12,000 FEET WITH NO
SIGNIFICANT WEATHER AND/OR OBSTRUCTIONS TO VISIBILITY.

CAZ001-003-271000-
NORTHWEST AREA

CITY           SKY/WX    TMP DP  RH WIND       PRES   REMARKS
CRESCENT CITY  CLOUDY    55  54  96 N5        30.04F
UKIAH          CLEAR     57  51  80 NW3       29.97F
$$

CAZ006-505>513-271000-
BAY AREA

CITY           SKY/WX    TMP DP  RH WIND       PRES   REMARKS
SANTA ROSA     CLEAR     55  53  93 CALM      29.95F
SAN RAFAEL     N/A       59  MM  MM MISG
NAPA           MOCLDY    59  54  83 W6        29.96S
CONCORD        CLEAR     61  55  81 SW14      29.96F
OAKLAND CITY   N/A      MM  MM  MM MISG
OAKLAND        CLOUDY    62  57  83 W18       29.99F
SAN FRAN CITY  N/A       57  MM  87 MISG
SAN FRAN ARPT  CLOUDY    60  54  80 W15       29.98F
LIVERMORE      MOCLDY    59  55  87 W9        29.97F
HAYWARD        CLOUDY    62  53  72 W10       29.99F
REDWOOD CITY   N/A       60  MM  85 MISG
MOFFETT ARPT   CLOUDY    60  56  86 VRB3      30.00F
SAN JOSE ARPT  CLOUDY    62  56  80 N8        29.99F
$$
CAZ034-037-514>518-271000-
CENTRAL COAST

CITY           SKY/WX    TMP DP  RH WIND       PRES   REMARKS
WATSONVILLE    CLOUDY    58  57  97 NE5       29.98F
SALINAS        CLEAR     59  55  87 VRB5      29.97F
MONTEREY       CLOUDY    58  55  90 S6        29.99F
SAN LUIS OBISP CLEAR     55  53  93 CALM      29.97F
SANTA MARIA    CLOUDY    56  56 100 W7        29.97F FOG
$$
CAZ015-016-271000-
NORTHERN SACRAMENTO VALLEY

CITY           SKY/WX    TMP DP  RH WIND       PRES   REMARKS
REDDING        CLEAR     73  51  46 S3        29.91S
RED BLUFF      CLEAR     69  52  54 S6        29.91F
OROVILLE       CLEAR     68  55  63 S9        29.91F
$$
CAZ016>018-271000-
SOUTHERN SACRAMENTO VALLEY

CITY           SKY/WX    TMP DP  RH WIND       PRES   REMARKS
AUBURN         CLEAR     63  54  72 SE6       29.96S
BEALE AFB      CLEAR     63  54  70 S7        29.89S
LINCOLN        FAIR      63  50  63 S9        29.91S
MARYSVILLE     CLEAR     64  54  69 SE8       29.92R
SAC INTL ARPT  CLEAR     59  55  87 S15       29.90F
MATHER AIRPORT NOT AVBL
DOWNTOWN SAC   N/A       62  MM  MM MISG
SAC EXEC ARPT  CLEAR     60  56  86 S7        29.92F
VACAVILLE      CLEAR     61  55  81 SW10      29.91S
TRAVIS AFB     CLEAR     57  54  89 SW21      29.90F
$$
CAZ019>021-271000-
SAN JOAQUIN VALLEY

CITY           SKY/WX    TMP DP  RH WIND       PRES   REMARKS
STOCKTON       CLEAR     62  55  77 W12       29.93F
MODESTO        CLEAR     64  55  72 N14       29.91F
MERCED         CLEAR     64  55  72 NW12      29.89S
LEMOORE        CLEAR     70  53  54 NW14      29.88S
FRESNO         CLEAR     70  58  65 NW15      29.87F
HANFORD        CLEAR     70  60  70 NW13      29.87F
PORTERVILLE      N/A     68  54  60 S6        29.88S
BAKERSFIELD    CLEAR     76  55  48 N5        29.88S
$$
CAZ011-012-071-271000-
NORTHERN MOUNTAINS

CITY           SKY/WX    TMP DP  RH WIND       PRES   REMARKS
YREKA          CLEAR     62  54  74 N7        30.00F
MOUNT SHASTA   CLEAR     52  43  71 CALM      30.04F
ALTURAS        CLEAR     53  39  59 CALM      30.08F
$$
CAZ011-012-071-271000-
SIERRA NEVADA MTNS

CITY           SKY/WX    TMP DP  RH WIND       PRES   REMARKS
BLUE CANYON    CLEAR     61  34  36 SE5       30.16F
TRUCKEE        CLEAR     43  32  65 CALM      30.20S
TAHOE VLY ARPT CLEAR     45  29  53 CALM      30.20F
MAMMOTH LAKES  FAIR      43  27  53 CALM      30.25S
$$




USA.gov is the U.S. government's official web portal to all federal, state and local government web resources and services.